Location: Dittelbrunn
(50.0738°N, 10.2196°E)
Time: 22:38:36
(UTC+00:00)

HJ-1C - Pass Details

Date: 18 September 2020
Orbit: 432 x 443 km, 97.1° (Epoch: 21 October)

Event Time Altitude Azimuth Distance (km) Brightness Sun altitude
Rises 18:25:55 0° 174° (S) 2,398 6.9 -10.4°
Reaches altitude 10° 18:27:56 10° 179° (S) 1,535 5.9 -10.7°
Maximum altitude 18:31:10 58° 259° (W) 512 4.0 -11.2°
Drops below altitude 10° 18:34:28 10° 340° (NNW) 1,552 6.6 -11.7°
Sets 18:36:31 0° 344° (NNW) 2,428 7.6 -12.1°
